Location: Be Tobo
(6.6442°N, 10.6239°W)
Time: 01:31:31
(UTC+00:00)

DELTA-4 R/B - Pass Details

Date: 18 September 2020
Orbit: 467 x 34491 km, 13.4° (Epoch: 20 October)

Event Time Altitude Azimuth Distance (km) Brightness Sun altitude
Rises 18:33:19 0° 288° (WNW) 2,735 7.7 0.9°
Reaches altitude 10° 18:34:44 10° 292° (WNW) 2,091 6.8 0.6°
Maximum altitude 18:38:47 64° 15° (NNE) 1,298 4.2 -0.4°
Drops below altitude 10° 18:59:03 10° 96° (E) 9,316 7.8 -5.5°
Enters shadow 19:04:32 - 97° (E) 11,210 8.2 -6.8°
